This is the latest recevied weather packets stored in our database for station/object N9CQS-13. If no packets are shown the sender has not sent any weather packets the latest 10 day(s).
| Time | Temp. | Humidity | Pressure | Rain* | Wind** | Luminosity | Snow |
|---|---|---|---|---|---|---|---|
| 1777707692 | 5.56° C | 77% | 1019.9 hPa | 0 mm | - | - | - |
| 1777707092 | 5.56° C | 77% | 1019.8 hPa | 0 mm | - | - | - |
| 1777706492 | 5.56° C | 78% | 1019.7 hPa | 0 mm | - | - | - |
| 1777705892 | 5.56° C | 78% | 1019.7 hPa | 0 mm | - | - | - |
| 1777705292 | 6.11° C | 76% | 1019.5 hPa | 0 mm | - | - | - |
| 1777704692 | 6.11° C | 78% | 1019.5 hPa | 0 mm | - | - | - |
| 1777704092 | 5.56° C | 81% | 1019.4 hPa | 0 mm | - | - | - |
| 1777703491 | 5.56° C | 82% | 1019.7 hPa | 0 mm | - | - | - |
| 1777702891 | 6.11° C | 82% | 1019.7 hPa | 0 mm | - | - | - |
| 1777702291 | 6.11° C | 82% | 1019.6 hPa | 0 mm | - | - | - |
| 1777701091 | 6.67° C | 81% | 1019.7 hPa | 0 mm | - | - | - |
| 1777700492 | 6.67° C | 80% | 1019.6 hPa | 0 mm | - | - | - |
| 1777699893 | 7.22° C | 79% | 1019.4 hPa | 0 mm | - | - | - |
| 1777699291 | 7.22° C | 77% | 1019.4 hPa | 0 mm | - | - | - |
| 1777698692 | 7.78° C | 76% | 1019.3 hPa | 0 mm | - | - | - |
| 1777698092 | 7.78° C | 75% | 1019.5 hPa | 0 mm | - | - | - |
| 1777697491 | 7.78° C | 74% | 1019.5 hPa | 0 mm | - | - | - |
| 1777696892 | 8.33° C | 74% | 1019.4 hPa | 0 mm | - | - | - |
| 1777696292 | 8.33° C | 74% | 1019.6 hPa | 0 mm | - | - | - |
| 1777695691 | 8.33° C | 72% | 1019.5 hPa | 0 mm | - | - | - |
| 1777695092 | 8.89° C | 71% | 1019.5 hPa | 0 mm | - | - | - |
| 1777694491 | 8.89° C | 71% | 1019.4 hPa | 0 mm | - | - | - |
| 1777693892 | 8.89° C | 71% | 1019.4 hPa | 0 mm | - | - | - |
| 1777693292 | 8.89° C | 73% | 1019.4 hPa | 0 mm | - | - | - |
| 1777692691 | 8.89° C | 72% | 1019.4 hPa | 0 mm | - | - | - |
* Rain latest hour (hover to see other rain measurements)
** Current wind speed in m/s (hover to see current wind gust speed)